EN

Hourly Weather Ambilobe

Today, 17 January, Sunday

Time Temperature Precipitation Wind Pressure Humidity
00:00 +26°C° 0.1 mm 1 mps 753 mmHg 93%
01:00 +26°C° 0 mm 1 mps 753 mmHg 93%
02:00 +26°C° 0 mm 1 mps 753 mmHg 93%
03:00 +25°C° 0 mm 1 mps 753 mmHg 92%
04:00 +25°C° 0 mm 1 mps 753 mmHg 92%
05:00 +25°C° 0 mm 1 mps 754 mmHg 92%
06:00 +25°C° 0 mm 1 mps 754 mmHg 92%
07:00 +27°C° 0 mm 1 mps 754 mmHg 86%
08:00 +27°C° 0 mm 0 mps 755 mmHg 80%
09:00 +29°C° 0 mm 0 mps 755 mmHg 74%
10:00 +33°C° 0 mm 1 mps 754 mmHg 69%
11:00 +34°C° 0 mm 1 mps 754 mmHg 64%
12:00 +35°C° 0 mm 1 mps 753 mmHg 58%
13:00 +35°C° 1.1 mm 2 mps 753 mmHg 64%
14:00 +34°C° 1.1 mm 2 mps 752 mmHg 70%
15:00 +33°C° 1.1 mm 3 mps 752 mmHg 75%
16:00 +31°C° 1.7 mm 2 mps 752 mmHg 80%
17:00 +30°C° 1.7 mm 1 mps 752 mmHg 84%
18:00 +29°C° 1.7 mm 1 mps 753 mmHg 88%
19:00 +28°C° 0.7 mm 1 mps 753 mmHg 89%
20:00 +27°C° 0.7 mm 1 mps 754 mmHg 90%
21:00 +27°C° 0.7 mm 1 mps 754 mmHg 91%
22:00 +27°C° 0.2 mm 1 mps 754 mmHg 91%
23:00 +26°C° 0.2 mm 1 mps 753 mmHg 91%

Tomorrow, 18 January, Monday

Time Temperature Precipitation Wind Pressure Humidity
00:00 +26°C° 0.2 mm 1 mps 753 mmHg 91%
01:00 +24°C° 0 mm 0 mps 753 mmHg 91%
02:00 +24°C° 0 mm 0 mps 753 mmHg 92%
03:00 +24°C° 0 mm 0 mps 753 mmHg 92%
04:00 +24°C° 0.1 mm 0 mps 753 mmHg 92%
05:00 +24°C° 0.1 mm 0 mps 753 mmHg 92%
06:00 +24°C° 0.1 mm 0 mps 754 mmHg 93%
07:00 +28°C° 0.1 mm 1 mps 754 mmHg 87%
08:00 +29°C° 0.1 mm 1 mps 754 mmHg 81%
09:00 +31°C° 0.1 mm 1 mps 754 mmHg 76%
10:00 +32°C° 0.2 mm 1 mps 754 mmHg 73%
11:00 +32°C° 0.2 mm 2 mps 753 mmHg 71%
12:00 +34°C° 0.2 mm 3 mps 752 mmHg 68%
13:00 +33°C° 0.8 mm 3 mps 752 mmHg 71%
14:00 +33°C° 0.8 mm 3 mps 752 mmHg 73%
15:00 +31°C° 0.8 mm 3 mps 751 mmHg 76%
16:00 +30°C° 1.2 mm 3 mps 751 mmHg 81%
17:00 +29°C° 1.2 mm 2 mps 752 mmHg 85%
18:00 +28°C° 1.2 mm 2 mps 752 mmHg 90%
19:00 +28°C° 0.8 mm 2 mps 752 mmHg 91%
20:00 +27°C° 0.8 mm 2 mps 752 mmHg 91%
21:00 +27°C° 0.8 mm 2 mps 753 mmHg 92%
22:00 +27°C° 0.7 mm 2 mps 753 mmHg 92%
23:00 +27°C° 0.7 mm 1 mps 752 mmHg 93%

Day after tomorrow, 19 January, Tuesday

Time Temperature Precipitation Wind Pressure Humidity
00:00 +27°C° 0.7 mm 1 mps 752 mmHg 93%
01:00 +27°C° 0.5 mm 2 mps 752 mmHg 93%
02:00 +27°C° 0.5 mm 2 mps 752 mmHg 94%
03:00 +27°C° 0.5 mm 2 mps 752 mmHg 94%
04:00 +27°C° 2 mm 3 mps 752 mmHg 95%
05:00 +27°C° 2 mm 3 mps 752 mmHg 95%
06:00 +27°C° 2 mm 4 mps 753 mmHg 96%
07:00 +27°C° 2 mm 4 mps 753 mmHg 95%
08:00 +27°C° 2 mm 4 mps 753 mmHg 94%
09:00 +27°C° 2 mm 4 mps 753 mmHg 94%
10:00 +27°C° 2.9 mm 5 mps 753 mmHg 93%
11:00 +27°C° 2.9 mm 5 mps 753 mmHg 93%
12:00 +27°C° 2.9 mm 5 mps 752 mmHg 92%
13:00 +26°C° 3.5 mm 5 mps 752 mmHg 93%
14:00 +26°C° 3.5 mm 5 mps 752 mmHg 94%
15:00 +26°C° 3.5 mm 5 mps 752 mmHg 95%
16:00 +26°C° 2.3 mm 5 mps 752 mmHg 95%
17:00 +26°C° 2.3 mm 5 mps 752 mmHg 95%
18:00 +26°C° 2.3 mm 6 mps 752 mmHg 95%
19:00 +26°C° 1.4 mm 5 mps 752 mmHg 95%
20:00 +26°C° 1.4 mm 5 mps 752 mmHg 95%
21:00 +26°C° 1.4 mm 5 mps 752 mmHg 95%
22:00 +26°C° 2.3 mm 5 mps 752 mmHg 95%
23:00 +26°C° 2.3 mm 5 mps 752 mmHg 96%

20 January, Wednesday

Time Temperature Precipitation Wind Pressure Humidity
00:00 +26°C° 2.3 mm 5 mps 751 mmHg 96%
01:00 +25°C° 3.4 mm 5 mps 751 mmHg 96%
02:00 +25°C° 3.4 mm 5 mps 751 mmHg 95%
03:00 +25°C° 3.4 mm 4 mps 750 mmHg 95%
04:00 +25°C° 3.2 mm 5 mps 751 mmHg 95%
05:00 +25°C° 3.2 mm 5 mps 751 mmHg 95%
06:00 +24°C° 3.2 mm 6 mps 751 mmHg 95%
07:00 +24°C° 3.4 mm 6 mps 752 mmHg 95%
08:00 +24°C° 3.4 mm 7 mps 752 mmHg 95%
09:00 +24°C° 3.4 mm 7 mps 752 mmHg 95%
10:00 +24°C° 3.7 mm 7 mps 752 mmHg 95%
11:00 +24°C° 3.7 mm 7 mps 752 mmHg 94%
12:00 +26°C° 3.7 mm 6 mps 752 mmHg 94%
13:00 +26°C° 1.3 mm 6 mps 752 mmHg 92%
14:00 +26°C° 1.3 mm 6 mps 751 mmHg 91%
15:00 +26°C° 1.3 mm 6 mps 751 mmHg 90%
16:00 +26°C° 0.6 mm 6 mps 752 mmHg 90%
17:00 +26°C° 0.6 mm 5 mps 752 mmHg 90%
18:00 +26°C° 0.6 mm 5 mps 752 mmHg 90%
19:00 +26°C° 0.7 mm 4 mps 753 mmHg 90%
20:00 +26°C° 0.7 mm 4 mps 753 mmHg 90%
21:00 +26°C° 0.7 mm 3 mps 754 mmHg 90%
22:00 +26°C° 0.6 mm 3 mps 754 mmHg 91%
23:00 +26°C° 0.6 mm 2 mps 754 mmHg 92%

21 January, Thursday

Time Temperature Precipitation Wind Pressure Humidity
00:00 +26°C° 0.6 mm 2 mps 754 mmHg 93%
01:00 +25°C° 0.6 mm 2 mps 754 mmHg 94%
02:00 +25°C° 0.6 mm 1 mps 753 mmHg 94%
03:00 +25°C° 0.6 mm 1 mps 753 mmHg 95%
04:00 +25°C° 0.6 mm 1 mps 753 mmHg 95%
05:00 +25°C° 0.6 mm 1 mps 754 mmHg 94%
06:00 +23°C° 0.6 mm 0 mps 754 mmHg 94%
07:00 +27°C° 0.4 mm 1 mps 754 mmHg 91%
08:00 +28°C° 0.4 mm 1 mps 755 mmHg 87%
09:00 +29°C° 0.4 mm 1 mps 755 mmHg 83%
10:00 +30°C° 1.2 mm 2 mps 755 mmHg 82%
11:00 +30°C° 1.2 mm 2 mps 754 mmHg 82%
12:00 +30°C° 1.2 mm 3 mps 754 mmHg 81%
13:00 +30°C° 1.6 mm 3 mps 754 mmHg 82%
14:00 +30°C° 1.6 mm 2 mps 753 mmHg 83%
15:00 +30°C° 1.6 mm 2 mps 753 mmHg 84%
16:00 +29°C° 0.6 mm 2 mps 753 mmHg 86%
17:00 +28°C° 0.6 mm 1 mps 754 mmHg 88%
18:00 +28°C° 0.6 mm 1 mps 754 mmHg 90%
19:00 +27°C° 0 mm 1 mps 754 mmHg 91%
20:00 +27°C° 0 mm 1 mps 755 mmHg 92%
21:00 +24°C° 0 mm 0 mps 756 mmHg 93%
22:00 +24°C° 0 mm 0 mps 755 mmHg 93%
23:00 +24°C° 0 mm 0 mps 755 mmHg 94%

22 January, Friday

Time Temperature Precipitation Wind Pressure Humidity
00:00 +26°C° 0 mm 1 mps 755 mmHg 94%
01:00 +26°C° 0 mm 1 mps 755 mmHg 94%
02:00 +26°C° 0 mm 1 mps 754 mmHg 93%
03:00 +26°C° 0 mm 1 mps 754 mmHg 93%
04:00 +26°C° 0 mm 1 mps 755 mmHg 93%
05:00 +26°C° 0 mm 1 mps 755 mmHg 93%
06:00 +26°C° 0 mm 1 mps 755 mmHg 93%
07:00 +27°C° 0 mm 1 mps 755 mmHg 88%
08:00 +29°C° 0 mm 1 mps 756 mmHg 83%
09:00 +31°C° 0 mm 1 mps 756 mmHg 78%
10:00 +31°C° 0.6 mm 1 mps 755 mmHg 78%
11:00 +31°C° 0.6 mm 2 mps 755 mmHg 78%
12:00 +31°C° 0.6 mm 2 mps 754 mmHg 78%
13:00 +31°C° 1 mm 3 mps 754 mmHg 78%
14:00 +31°C° 1 mm 3 mps 754 mmHg 79%
15:00 +30°C° 1 mm 3 mps 754 mmHg 80%
16:00 +30°C° 0.4 mm 2 mps 754 mmHg 83%
17:00 +29°C° 0.4 mm 2 mps 754 mmHg 85%
18:00 +28°C° 0.4 mm 1 mps 754 mmHg 88%
19:00 +28°C° 0 mm 1 mps 754 mmHg 89%
20:00 +25°C° 0 mm 0 mps 755 mmHg 90%
21:00 +25°C° 0 mm 0 mps 755 mmHg 90%
22:00 +25°C° 0 mm 0 mps 755 mmHg 91%
23:00 +26°C° 0 mm 1 mps 755 mmHg 92%
Show more